Location: Alpha Ridge Park
(39.3209°N, 76.9128°W)
Time: 02:09:58
(UTC-04:00)

AAUSAT CUBESAT 2 - Visible Passes

Search period start: 26 June 2022 00:00
Search period end: 06 July 2022 00:00
Orbit: 565 x 584 km, 97.5° (Epoch: 25 June)

Date Brightness Start Highest point End Pass type
(mag) Time Alt. Az. Time Alt. Az. Time Alt. Az.
02 Jul ? 04:43:52 10° E 04:44:28 10° E 04:45:05 10° E visible
03 Jul ? 04:46:21 10° ENE 04:47:41 11° E 04:49:01 10° ESE visible
04 Jul ? 04:49:08 10° ENE 04:50:54 12° E 04:52:40 10° ESE visible
05 Jul ? 04:52:00 10° ENE 04:54:06 14° E 04:56:11 10° ESE visible
